******************************************************************************* JPL/HORIZONS 99942 Apophis (2004 MN4) 2025-Dec-12 17:43:38 Rec #: 99942 (+COV) Soln.date: 2024-Jun-25_10:48:08 # obs: 7370 (2004-2022) IAU76/J2000 helio. ecliptic osc. elements (au, days, deg., period=Julian yrs): EPOCH= 2459215.5 ! 2021-Jan-01.00 (TDB) Residual RMS= .080135 EC= .1915216893501022 QR= .7458270478466523 TP= 2459101.0394224627 OM= 204.0389272089208 W= 126.6520518368553 IN= 3.336751320066756 A= .9225071817289903 MA= 127.3225632013606 ADIST= 1.099187315611328 PER= .88606 N= 1.112370442 ANGMOM= .016216289 DAN= 1.00339 DDN= .79749 L= 330.7375495 B= 2.6764541 MOID= .0003822 TP= 2020-Sep-08.5394224627 Asteroid physical parameters (km, seconds, rotational period in hours): GM= n.a. RAD= .170 ROTPER= 30.56 H= 19.09 G= .240 B-V= n.a. ALBEDO= .350 STYP= Sq Non-default Earth gravity model (EOBL_LIM= au): EOBL_LIM= 1.000 EOBL_MOD = 2x0 (J2 only) Asteroid non-gravitational force model (AMRAT= m^2/kg;A1,A2,A3=au/d^2;R0=au): AMRAT= 0. A1= 4.999999873689E-13 A2= -2.901766720242E-14 A3= 0. Non-standard or simulated/proxy model: ALN= 1. NK= 0. NM= 2. NN= 5.093 R0= 1. ASTEROID comments: 1: soln ref.= JPL#220, PHA OCC=0 radar(20 delay,30 Dop.) 2: source=ORB ******************************************************************************* ******************************************************************************* Ephemeris / WWW_USER Fri Dec 12 17:43:38 2025 Pasadena, USA / Horizons ******************************************************************************* Target body name: 99942 Apophis (2004 MN4) {source: JPL#220} Center body name: Earth (399) {source: DE441} Center-site name: GEOCENTRIC ******************************************************************************* Start time : A.D. 2029-Apr-01 21:46:00.0000 UT Stop time : A.D. 2029-Apr-25 00:00:00.0000 UT Step-size : 1440 minutes ******************************************************************************* Target pole/equ : undefined Target radii : 0.17 km Center geodetic : 0.0, 0.0, -6378.137 {E-lon(deg),Lat(deg),Alt(km)} Center cylindric: 0.0, 0.0, 0.0 {E-lon(deg),Dxy(km),Dz(km)} Center pole/equ : ITRF93 {East-longitude positive} Center radii : 6378.137, 6378.137, 6356.752 km {Equator_a, b, pole_c} Target primary : Sun Vis. interferer : MOON (R_eq= 1737.400) km {source: DE441} Rel. light bend : Sun {source: DE441} Rel. lght bnd GM: 1.3271E+11 km^3/s^2 Small-body perts: Yes {source: SB441-N16} Atmos refraction: NO (AIRLESS) RA format : HMS Time format : CAL Calendar mode : Mixed Julian/Gregorian EOP file : eop.251212.p260310 EOP coverage : DATA-BASED 1962-JAN-20 TO 2025-DEC-12. PREDICTS-> 2026-MAR-09 Units conversion: 1 au= 149597870.700 km, c= 299792.458 km/s, 1 day= 86400.0 s Table cut-offs 1: Elevation (-90.0deg=NO ),Airmass (>38.000=NO), Daylight (NO ) Table cut-offs 2: Solar elongation ( 0.0,180.0=NO ),Local Hour Angle( 0.0=NO ) Table cut-offs 3: RA/DEC angular rate ( 0.0=NO ) ******************************************************************************* Initial IAU76/J2000 heliocentric ecliptic osculating elements (au, days, deg.): EPOCH= 2459215.5 ! 2021-Jan-01.00 (TDB) Residual RMS= .080135 EC= .1915216893501022 QR= .7458270478466523 TP= 2459101.0394224627 OM= 204.0389272089208 W= 126.6520518368553 IN= 3.336751320066756 Equivalent ICRF heliocentric cartesian coordinates (au, au/d): X=-4.098530841632175E-01 Y= 9.070198866066711E-01 Z= 3.267919471115156E-01 VX=-1.507552412168823E-02 VY=-3.713559927658847E-03 VZ=-1.761867987218290E-03 Asteroid physical parameters (km, seconds, rotational period in hours): GM= n.a. RAD= .170 ROTPER= 30.56 H= 19.09 G= .240 B-V= n.a. Non-default Earth gravity model (EOBL_LIM= au): EOBL_LIM= 1.000 EOBL_MOD = 2x0 (J2 only) Asteroid non-gravitational force model (AMRAT= m^2/kg;A1,A2,A3=au/d^2;R0=au): AMRAT= 0. A1= 4.999999873689E-13 A2= -2.901766720242E-14 A3= 0. Non-standard or simulated/proxy model: ALN= 1. NK= 0. NM= 2. NN= 5.093 R0= 1. ******************************************************************************* Date__(UT)__HR:MN VmagSn VmagOb ********************************************** $$SOE 2029-Apr-01 21:46 27.4476494 6.0066038 2029-Apr-02 21:46 27.5193997 5.9878435 2029-Apr-03 21:46 27.5924429 5.9702756 2029-Apr-04 21:46 27.6667690 5.9539548 2029-Apr-05 21:46 27.7423646 5.9390236 2029-Apr-06 21:46 27.8192106 5.9257229 2029-Apr-07 21:46 27.8972782 5.9144261 2029-Apr-08 21:46 27.9765204 5.9057317 2029-Apr-09 21:46 28.0568523 5.9007096 2029-Apr-10 21:46 28.1381020 5.9016467 2029-Apr-11 21:46 28.2198645 5.9149890 2029-Apr-12 21:46 28.3012877 5.9712687 2029-Apr-13 21:46 29.9819672 7.4224731 2029-Apr-14 21:46 31.1976613 5.9712763 2029-Apr-15 21:46 31.2637401 5.9091730 2029-Apr-16 21:46 31.3414347 5.8933713 2029-Apr-17 21:46 31.4218564 5.8916804 2029-Apr-18 21:46 31.5031832 5.8977132 2029-Apr-19 21:46 31.5847583 5.9093277 2029-Apr-20 21:46 31.6662717 5.9255910 2029-Apr-21 21:46 31.7475468 5.9460118 2029-Apr-22 21:46 31.8284676 5.9702768 2029-Apr-23 21:46 31.9089482 5.9981365 2029-Apr-24 21:46 31.9889193 6.0293450 $$EOE ******************************************************************************* Column meaning: TIME Times PRIOR to 1962 are UT1, a mean-solar time closely related to the prior but now-deprecated GMT. Times AFTER 1962 are in UTC, the current civil or "wall-clock" time-scale. UTC is kept within 0.9 seconds of UT1 using integer leap-seconds for 1972 and later years. Conversion from the internal Barycentric Dynamical Time (TDB) of solar system dynamics to the non-uniform civil UT time-scale requested for output has not been determined for UTC times after the next July or January 1st. Therefore, the last known leap-second is used as a constant over future intervals. Time tags refer to the UT time-scale conversion from TDB on Earth regardless of observer location within the solar system, although clock rates may differ due to the local gravity field and no analog to "UT" may be defined for that location. Any 'b' symbol in the 1st-column denotes a B.C. date. First-column blank (" ") denotes an A.D. date. CALENDAR SYSTEM Mixed calendar mode was active such that calendar dates after AD 1582-Oct-15 (if any) are in the modern Gregorian system. Dates prior to 1582-Oct-5 (if any) are in the Julian calendar system, which is automatically extended for dates prior to its adoption on 45-Jan-1 BC. The Julian calendar is useful for matching historical dates. The Gregorian calendar more accurately corresponds to the Earth's orbital motion and seasons. A "Gregorian-only" calendar mode is available if such physical events are the primary interest. NOTE: "n.a." in output means quantity "not available" at the print-time. 'VmagSn VmagOb' = Magnitude of target centers' velocity with respect to the Sun ("VmagSn") and the observer ("VmagOb") at the time light left the target center to be observed (print time minus down-leg light-time). These are absolute values of the velocity vectors (total speeds) and do NOT indicate direction of motion. Units: KM/S Computations by ... Solar System Dynamics Group, Horizons On-Line Ephemeris System 4800 Oak Grove Drive, Jet Propulsion Laboratory Pasadena, CA 91109 USA General site: https://ssd.jpl.nasa.gov/ Mailing list: https://ssd.jpl.nasa.gov/email_list.html System news : https://ssd.jpl.nasa.gov/horizons/news.html User Guide : https://ssd.jpl.nasa.gov/horizons/manual.html Connect : browser https://ssd.jpl.nasa.gov/horizons/app.html#/x API https://ssd-api.jpl.nasa.gov/doc/horizons.html command-line telnet ssd.jpl.nasa.gov 6775 e-mail/batch https://ssd.jpl.nasa.gov/ftp/ssd/horizons_batch.txt scripts https://ssd.jpl.nasa.gov/ftp/ssd/SCRIPTS Author : Jon.D.Giorgini@jpl.nasa.gov ******************************************************************************* !$$SOF COMMAND = apophis QUANTITIES = 22 START_TIME = '2029-4-1 21:46' STEP_SIZE = '1 days' STOP_TIME = '2029-4-25'